Time,TemperatureF,DewpointF,PressureIn,WindDirection,WindDirectionDegrees,WindSpeedMPH,WindSpeedGustMPH,Humidity,HourlyPrecipIn,Conditions,Clouds,dailyrainin,SoftwareType,DateUTC
2013-07-23 00:01:00,66.0,60.7,29.96,SE,135,0.0,0.0,83,0.00,,---,0.19,VWS V14.01,2013-07-23 04:01:00,
2013-07-23 00:02:00,66.0,60.7,29.96,SE,135,0.0,0.0,83,0.00,,---,0.00,VWS V14.01,2013-07-23 04:02:00,
2013-07-23 00:07:00,65.8,60.8,29.95,SE,135,0.0,0.0,84,0.00,,---,0.00,VWS V14.01,2013-07-23 04:07:00,
2013-07-23 00:12:00,65.8,60.8,29.95,SE,135,0.0,0.0,84,0.00,,---,0.00,VWS V14.01,2013-07-23 04:12:00,
2013-07-23 00:17:00,65.8,60.8,29.95,SE,135,0.0,0.0,84,0.00,,---,0.00,VWS V14.01,2013-07-23 04:17:00,
2013-07-23 00:22:00,65.8,60.8,29.95,SE,135,0.0,0.0,84,0.00,,---,0.00,VWS V14.01,2013-07-23 04:22:00,
2013-07-23 00:27:00,65.8,60.8,29.94,SE,135,0.0,0.0,84,0.00,,---,0.00,VWS V14.01,2013-07-23 04:27:00,
2013-07-23 00:32:00,65.6,60.6,29.94,SE,135,0.0,0.0,84,0.00,,---,0.00,VWS V14.01,2013-07-23 04:32:00,
2013-07-23 00:37:00,65.6,60.6,29.94,SE,135,0.0,0.0,84,0.00,,---,0.00,VWS V14.01,2013-07-23 04:37:00,
2013-07-23 00:42:00,65.6,60.6,29.94,SE,135,0.0,0.0,84,0.02,,---,0.02,VWS V14.01,2013-07-23 04:42:00,
2013-07-23 00:47:00,65.6,60.6,29.94,SE,135,0.0,0.0,84,0.02,,---,0.02,VWS V14.01,2013-07-23 04:47:00,
2013-07-23 00:52:00,65.4,60.5,29.94,SE,135,0.0,0.0,84,0.02,,---,0.02,VWS V14.01,2013-07-23 04:52:00,
2013-07-23 00:57:00,65.4,60.5,29.94,SE,135,0.0,0.0,84,0.02,,---,0.02,VWS V14.01,2013-07-23 04:57:00,
2013-07-23 01:02:00,65.4,60.5,29.93,SE,135,0.0,0.0,84,0.02,,---,0.02,VWS V14.01,2013-07-23 05:02:00,
2013-07-23 01:07:00,65.4,60.8,29.93,SE,135,0.0,0.0,85,0.02,,---,0.02,VWS V14.01,2013-07-23 05:07:00,
2013-07-23 01:12:00,65.4,60.8,29.93,SE,135,0.0,0.0,85,0.02,,---,0.02,VWS V14.01,2013-07-23 05:12:00,
2013-07-23 01:17:00,65.4,60.8,29.93,SE,135,0.0,0.0,85,0.02,,---,0.02,VWS V14.01,2013-07-23 05:17:00,
2013-07-23 01:22:00,65.4,60.8,29.92,SE,135,0.0,0.0,85,0.02,,---,0.02,VWS V14.01,2013-07-23 05:22:00,
2013-07-23 01:27:00,65.4,60.8,29.92,SE,135,0.0,0.0,85,0.02,,---,0.02,VWS V14.01,2013-07-23 05:27:00,
2013-07-23 01:32:00,65.4,61.1,29.92,SE,135,0.0,0.0,86,0.02,,---,0.02,VWS V14.01,2013-07-23 05:32:00,
2013-07-23 01:37:00,65.4,61.1,29.92,SE,135,0.0,0.0,86,0.02,,---,0.02,VWS V14.01,2013-07-23 05:37:00,
2013-07-23 01:42:00,65.4,61.1,29.92,SE,135,0.0,0.0,86,0.00,,---,0.02,VWS V14.01,2013-07-23 05:42:00,
2013-07-23 01:47:00,65.4,61.1,29.92,SE,135,0.0,0.0,86,0.00,,---,0.02,VWS V14.01,2013-07-23 05:47:00,
2013-07-23 01:52:00,65.4,61.1,29.92,SE,135,0.0,0.0,86,0.00,,---,0.02,VWS V14.01,2013-07-23 05:52:00,
2013-07-23 01:57:00,65.4,61.1,29.92,SE,135,0.0,0.0,86,0.00,,---,0.02,VWS V14.01,2013-07-23 05:57:00,
2013-07-23 02:02:00,65.4,61.1,29.91,SE,135,0.0,0.0,86,0.00,,---,0.02,VWS V14.01,2013-07-23 06:02:00,
2013-07-23 02:07:00,65.4,61.1,29.91,SE,135,0.0,0.0,86,0.00,,---,0.02,VWS V14.01,2013-07-23 06:07:00,
2013-07-23 02:12:00,65.4,61.4,29.91,SE,135,0.0,0.0,87,0.00,,---,0.02,VWS V14.01,2013-07-23 06:12:00,
2013-07-23 02:17:00,65.4,61.4,29.91,SE,135,0.0,0.0,87,0.00,,---,0.02,VWS V14.01,2013-07-23 06:17:00,
2013-07-23 02:22:00,65.4,61.4,29.91,SE,135,0.0,0.0,87,0.00,,---,0.02,VWS V14.01,2013-07-23 06:22:00,
2013-07-23 02:27:00,65.4,61.4,29.91,SE,135,0.0,0.0,87,0.00,,---,0.02,VWS V14.01,2013-07-23 06:27:00,
2013-07-23 02:32:00,65.6,61.6,29.91,SE,135,0.0,0.0,87,0.00,,---,0.02,VWS V14.01,2013-07-23 06:32:00,
2013-07-23 02:37:00,65.6,61.6,29.91,SE,135,0.0,0.0,87,0.00,,---,0.02,VWS V14.01,2013-07-23 06:37:00,
2013-07-23 02:42:00,65.6,61.6,29.91,SE,135,0.0,0.0,87,0.00,,---,0.02,VWS V14.01,2013-07-23 06:42:00,
2013-07-23 02:47:00,65.6,61.6,29.91,SE,135,0.0,0.0,87,0.00,,---,0.02,VWS V14.01,2013-07-23 06:47:00,
2013-07-23 02:52:00,65.8,61.8,29.91,SE,135,0.0,0.0,87,0.02,,---,0.04,VWS V14.01,2013-07-23 06:52:00,
2013-07-23 02:57:00,65.6,61.6,29.90,SE,135,0.0,0.0,87,0.02,,---,0.04,VWS V14.01,2013-07-23 06:57:00,
2013-07-23 03:02:00,65.8,61.8,29.90,SE,135,0.0,0.0,87,0.02,,---,0.04,VWS V14.01,2013-07-23 07:02:00,
2013-07-23 03:07:00,65.8,61.8,29.90,SE,135,0.0,0.0,87,0.02,,---,0.04,VWS V14.01,2013-07-23 07:07:00,
2013-07-23 03:12:00,65.6,61.6,29.90,SE,135,0.0,0.0,87,0.02,,---,0.04,VWS V14.01,2013-07-23 07:12:00,
2013-07-23 03:17:00,65.6,61.3,29.90,SE,135,0.0,0.0,86,0.02,,---,0.04,VWS V14.01,2013-07-23 07:17:00,
2013-07-23 03:22:00,65.6,61.3,29.89,SE,135,0.0,0.0,86,0.04,,---,0.06,VWS V14.01,2013-07-23 07:22:00,
2013-07-23 03:27:00,65.6,61.3,29.89,SE,135,0.0,0.0,86,0.04,,---,0.06,VWS V14.01,2013-07-23 07:27:00,
2013-07-23 03:32:00,65.6,61.3,29.89,SE,135,0.0,0.0,86,0.04,,---,0.06,VWS V14.01,2013-07-23 07:32:00,
2013-07-23 03:37:00,65.4,61.1,29.89,SE,135,0.0,0.0,86,0.04,,---,0.06,VWS V14.01,2013-07-23 07:37:00,
2013-07-23 03:42:00,65.6,61.3,29.88,SE,135,0.0,0.0,86,0.04,,---,0.06,VWS V14.01,2013-07-23 07:42:00,
2013-07-23 03:47:00,65.4,61.1,29.88,SE,135,0.0,0.0,86,0.02,,---,0.06,VWS V14.01,2013-07-23 07:47:00,
2013-07-23 03:52:00,65.4,61.1,29.88,SE,135,0.0,0.0,86,0.04,,---,0.08,VWS V14.01,2013-07-23 07:52:00,
2013-07-23 03:57:00,65.4,61.1,29.87,SE,135,0.0,0.0,86,0.04,,---,0.08,VWS V14.01,2013-07-23 07:57:00,
2013-07-23 04:02:00,65.4,61.1,29.87,SE,135,0.0,0.0,86,0.04,,---,0.08,VWS V14.01,2013-07-23 08:02:00,
2013-07-23 04:07:00,65.4,61.4,29.86,SE,135,0.0,0.0,87,0.04,,---,0.08,VWS V14.01,2013-07-23 08:07:00,
2013-07-23 04:12:00,65.3,61.3,29.86,SE,135,0.0,0.0,87,0.04,,---,0.08,VWS V14.01,2013-07-23 08:12:00,
2013-07-23 04:17:00,65.3,61.3,29.86,SE,135,0.0,0.0,87,0.04,,---,0.08,VWS V14.01,2013-07-23 08:17:00,
2013-07-23 04:22:00,65.3,61.3,29.86,SE,135,0.0,0.0,87,0.02,,---,0.08,VWS V14.01,2013-07-23 08:22:00,
2013-07-23 04:27:00,65.3,61.3,29.86,SE,135,0.0,0.0,87,0.02,,---,0.08,VWS V14.01,2013-07-23 08:27:00,
2013-07-23 04:32:00,65.1,61.1,29.86,SE,135,0.0,0.0,87,0.04,,---,0.10,VWS V14.01,2013-07-23 08:32:00,
2013-07-23 04:37:00,65.3,61.3,29.86,SE,135,0.0,0.0,87,0.04,,---,0.10,VWS V14.01,2013-07-23 08:37:00,
2013-07-23 04:45:00,65.1,61.1,29.86,SE,135,0.0,0.0,87,0.04,,---,0.10,VWS V14.01,2013-07-23 08:45:00,
2013-07-23 04:50:00,65.1,61.1,29.86,SE,135,0.0,0.0,87,0.02,,---,0.10,VWS V14.01,2013-07-23 08:50:00,
2013-07-23 04:55:00,65.1,61.1,29.86,SE,135,0.0,0.0,87,0.02,,---,0.10,VWS V14.01,2013-07-23 08:55:00,
2013-07-23 05:00:00,65.1,61.1,29.86,SE,135,0.0,0.0,87,0.02,,---,0.19,VWS V14.01,2013-07-23 09:00:00,
2013-07-23 05:05:00,65.1,61.1,29.86,SE,135,0.0,0.0,87,0.02,,---,0.10,VWS V14.01,2013-07-23 09:05:00,
2013-07-23 05:10:00,65.1,61.1,29.86,SE,135,0.0,0.0,87,0.02,,---,0.10,VWS V14.01,2013-07-23 09:10:00,
2013-07-23 05:15:00,65.1,61.1,29.86,SE,135,0.0,0.0,87,0.02,,---,0.10,VWS V14.01,2013-07-23 09:15:00,
2013-07-23 05:20:00,65.1,61.1,29.86,SE,135,0.0,0.0,87,0.02,,---,0.10,VWS V14.01,2013-07-23 09:20:00,
2013-07-23 05:25:00,65.1,61.1,29.86,SE,135,0.0,0.0,87,0.04,,---,0.12,VWS V14.01,2013-07-23 09:25:00,
2013-07-23 07:47:00,64.0,60.1,29.84,SE,135,0.0,0.0,87,0.04,,---,0.18,VWS V14.01,2013-07-23 11:47:00,
2013-07-23 07:52:00,64.0,60.1,29.84,SE,135,0.0,0.0,87,0.06,,---,0.20,VWS V14.01,2013-07-23 11:52:00,
2013-07-23 07:57:00,64.0,60.1,29.84,SE,135,0.0,0.0,87,0.04,,---,0.20,VWS V14.01,2013-07-23 11:57:00,
2013-07-23 08:02:00,64.0,60.1,29.84,SE,135,0.0,0.0,87,0.04,,---,0.20,VWS V14.01,2013-07-23 12:02:00,
2013-07-23 08:07:00,64.0,60.1,29.84,SE,135,0.0,0.0,87,0.06,,---,0.22,VWS V14.01,2013-07-23 12:07:00,
2013-07-23 08:11:00,64.0,60.1,29.84,SE,135,0.0,0.0,87,0.06,,---,0.22,VWS V14.01,2013-07-23 12:11:00,
2013-07-23 08:16:00,64.0,60.1,29.84,SE,135,0.0,0.0,87,0.06,,---,0.22,VWS V14.01,2013-07-23 12:16:00,
2013-07-23 08:21:00,64.0,60.1,29.84,SE,135,0.0,0.0,87,0.04,,---,0.22,VWS V14.01,2013-07-23 12:21:00,
2013-07-23 08:26:00,64.0,60.1,29.84,SE,135,0.0,0.0,87,0.04,,---,0.22,VWS V14.01,2013-07-23 12:26:00,
2013-07-23 08:31:00,64.2,60.3,29.84,SE,135,0.0,0.0,87,0.06,,---,0.24,VWS V14.01,2013-07-23 12:31:00,
2013-07-23 08:36:00,64.2,60.3,29.83,SE,135,0.0,0.0,87,0.06,,---,0.24,VWS V14.01,2013-07-23 12:36:00,
2013-07-23 08:41:00,64.2,60.3,29.83,SE,135,0.0,0.0,87,0.06,,---,0.24,VWS V14.01,2013-07-23 12:41:00,
2013-07-23 08:46:00,64.2,60.3,29.82,SE,135,0.0,0.0,87,0.06,,---,0.24,VWS V14.01,2013-07-23 12:46:00,
2013-07-23 08:51:00,64.2,60.3,29.82,SE,135,0.0,0.0,87,0.04,,---,0.24,VWS V14.01,2013-07-23 12:51:00,
2013-07-23 08:56:00,64.4,60.5,29.82,SE,135,0.0,0.0,87,0.04,,---,0.24,VWS V14.01,2013-07-23 12:56:00,
2013-07-23 09:01:00,64.4,60.5,29.82,SE,135,0.0,0.0,87,0.04,,---,0.24,VWS V14.01,2013-07-23 13:01:00,
2013-07-23 09:06:00,64.4,60.5,29.82,SE,135,0.0,0.0,87,0.04,,---,0.26,VWS V14.01,2013-07-23 13:06:00,
2013-07-23 09:11:00,64.4,60.5,29.81,SE,135,0.0,0.0,87,0.04,,---,0.26,VWS V14.01,2013-07-23 13:11:00,
2013-07-23 09:17:00,64.5,60.9,29.81,SE,135,0.0,0.0,88,0.04,,---,0.26,VWS V14.01,2013-07-23 13:17:00,
2013-07-23 09:22:00,64.5,60.9,29.81,SE,135,0.0,0.0,88,0.04,,---,0.26,VWS V14.01,2013-07-23 13:22:00,
2013-07-23 09:27:00,64.5,60.9,29.81,SE,135,0.0,0.0,88,0.04,,---,0.26,VWS V14.01,2013-07-23 13:27:00,
2013-07-23 09:31:00,64.5,60.9,29.81,SE,135,0.0,0.0,88,0.02,,---,0.26,VWS V14.01,2013-07-23 13:31:00,
2013-07-23 09:37:00,64.7,61.1,29.81,SE,135,0.0,0.0,88,0.02,,---,0.26,VWS V14.01,2013-07-23 13:37:00,
2013-07-23 09:42:00,64.7,60.8,29.80,SE,135,0.0,0.0,87,0.02,,---,0.26,VWS V14.01,2013-07-23 13:42:00,
2013-07-23 09:47:00,64.7,60.8,29.81,North,0,0.0,0.0,87,0.02,,---,0.26,VWS V14.01,2013-07-23 13:47:00,
2013-07-23 09:52:00,64.7,60.8,29.80,SE,135,0.0,0.0,87,0.02,,---,0.26,VWS V14.01,2013-07-23 13:52:00,
2013-07-23 09:57:00,64.9,60.9,29.80,SE,135,0.0,0.0,87,0.02,,---,0.26,VWS V14.01,2013-07-23 13:57:00,
2013-07-23 10:02:00,64.9,60.9,29.81,SE,135,0.0,0.0,87,0.02,,---,0.26,VWS V14.01,2013-07-23 14:02:00,
2013-07-23 10:07:00,64.9,60.9,29.81,SE,135,0.0,0.0,87,0.00,,---,0.26,VWS V14.01,2013-07-23 14:07:00,
2013-07-23 10:12:00,64.9,61.3,29.81,SE,135,0.0,0.0,88,0.00,,---,0.26,VWS V14.01,2013-07-23 14:12:00,
2013-07-23 10:17:00,65.1,61.5,29.80,SE,135,0.0,0.0,88,0.00,,---,0.26,VWS V14.01,2013-07-23 14:17:00,
2013-07-23 10:22:00,65.3,61.7,29.80,SE,135,0.0,0.0,88,0.00,,---,0.26,VWS V14.01,2013-07-23 14:22:00,
2013-07-23 10:27:00,65.4,61.8,29.80,SE,135,0.0,0.0,88,0.00,,---,0.26,VWS V14.01,2013-07-23 14:27:00,
2013-07-23 10:32:00,65.8,62.2,29.80,SE,135,0.0,0.0,88,0.00,,---,0.26,VWS V14.01,2013-07-23 14:32:00,
2013-07-23 10:37:00,66.0,62.3,29.80,SE,135,0.0,0.0,88,0.00,,---,0.19,VWS V14.01,2013-07-23 14:37:00,
2013-07-23 10:42:00,66.0,62.0,29.80,SE,135,0.0,0.0,87,0.00,,---,0.26,VWS V14.01,2013-07-23 14:42:00,
2013-07-23 10:47:00,66.0,62.0,29.80,SE,135,0.0,0.0,87,0.00,,---,0.26,VWS V14.01,2013-07-23 14:47:00,
2013-07-23 10:52:00,66.3,62.6,29.80,SE,135,0.0,0.0,88,0.00,,---,0.19,VWS V14.01,2013-07-23 14:52:00,
2013-07-23 10:57:00,66.3,62.6,29.80,SE,135,0.0,0.0,88,0.00,,---,0.26,VWS V14.01,2013-07-23 14:57:00,
2013-07-23 11:02:00,66.5,62.8,29.80,SE,135,0.0,0.0,88,0.00,,---,0.26,VWS V14.01,2013-07-23 15:02:00,
2013-07-23 11:07:00,66.7,62.7,29.80,SE,135,0.0,0.0,87,0.00,,---,0.26,VWS V14.01,2013-07-23 15:07:00,
2013-07-23 11:12:00,66.9,62.9,29.81,SE,135,0.0,0.0,87,0.00,,---,0.26,VWS V14.01,2013-07-23 15:12:00,
2013-07-23 11:17:00,67.1,63.1,29.81,SE,135,0.0,0.0,87,0.00,,---,0.26,VWS V14.01,2013-07-23 15:17:00,
2013-07-23 11:22:00,67.1,63.1,29.81,SE,135,0.0,0.0,87,0.00,,---,0.26,VWS V14.01,2013-07-23 15:22:00,
2013-07-23 11:27:00,67.1,62.8,29.81,SE,135,0.0,0.0,86,0.00,,---,0.26,VWS V14.01,2013-07-23 15:27:00,
2013-07-23 11:32:00,67.2,62.9,29.80,SE,135,0.0,0.0,86,0.00,,---,0.26,VWS V14.01,2013-07-23 15:32:00,
2013-07-23 11:37:00,67.4,63.4,29.80,SE,135,0.0,0.0,87,0.00,,---,0.19,VWS V14.01,2013-07-23 15:37:00,
2013-07-23 11:42:00,67.6,63.6,29.80,SE,135,0.0,0.0,87,0.00,,---,0.26,VWS V14.01,2013-07-23 15:42:00,
2013-07-23 11:47:00,67.8,63.5,29.80,SE,135,0.0,0.0,86,0.00,,---,0.26,VWS V14.01,2013-07-23 15:47:00,
2013-07-23 11:52:00,68.1,63.8,29.80,SE,135,0.0,0.0,86,0.00,,---,0.26,VWS V14.01,2013-07-23 15:52:00,
2013-07-23 11:57:00,68.1,63.8,29.81,SE,135,0.0,0.0,86,0.00,,---,0.26,VWS V14.01,2013-07-23 15:57:00,
2013-07-23 12:02:00,68.7,64.0,29.81,NW,315,0.0,0.0,85,0.00,,---,0.19,VWS V14.01,2013-07-23 16:02:00,
2013-07-23 12:07:00,69.0,64.3,29.80,NW,315,0.0,0.0,85,0.00,,---,0.26,VWS V14.01,2013-07-23 16:07:00,
2013-07-23 12:12:00,69.4,64.7,29.80,SW,225,0.0,0.0,85,0.00,,---,0.26,VWS V14.01,2013-07-23 16:12:00,
2013-07-23 12:17:00,70.3,65.6,29.80,SE,135,0.0,0.0,85,0.00,,---,0.26,VWS V14.01,2013-07-23 16:17:00,
2013-07-23 12:22:00,70.8,66.1,29.80,SSE,158,0.0,0.0,85,0.00,,---,0.26,VWS V14.01,2013-07-23 16:22:00,
2013-07-23 12:27:00,71.9,67.2,29.80,SE,135,0.0,0.0,85,0.00,,---,0.26,VWS V14.01,2013-07-23 16:27:00,
2013-07-23 12:32:00,73.0,67.2,29.80,NW,315,0.0,0.0,82,0.00,,---,0.26,VWS V14.01,2013-07-23 16:32:00,
2013-07-23 12:37:00,73.2,66.7,29.79,WNW,292,0.0,0.0,80,0.00,,---,0.26,VWS V14.01,2013-07-23 16:37:00,
2013-07-23 12:42:00,73.5,67.0,29.79,NW,315,0.0,0.0,80,0.00,,---,0.26,VWS V14.01,2013-07-23 16:42:00,
2013-07-23 12:47:00,73.7,66.8,29.79,South,180,0.0,0.0,79,0.00,,---,0.26,VWS V14.01,2013-07-23 16:47:00,
2013-07-23 12:52:00,73.9,66.6,29.79,NNW,338,0.0,0.0,78,0.00,,---,0.26,VWS V14.01,2013-07-23 16:52:00,
2013-07-23 12:57:00,73.9,66.6,29.79,NNW,338,0.0,0.0,78,0.00,,---,0.26,VWS V14.01,2013-07-23 16:57:00,
2013-07-23 13:02:00,73.9,67.0,29.79,NNW,338,0.0,0.0,79,0.00,,---,0.26,VWS V14.01,2013-07-23 17:02:00,
2013-07-23 13:07:00,74.1,67.2,29.78,ESE,112,0.0,0.0,79,0.00,,---,0.26,VWS V14.01,2013-07-23 17:07:00,
2013-07-23 13:12:00,74.4,67.5,29.78,SSE,158,0.0,0.0,79,0.00,,---,0.26,VWS V14.01,2013-07-23 17:12:00,
2013-07-23 13:17:00,74.8,67.5,29.77,SE,135,0.0,0.0,78,0.00,,---,0.26,VWS V14.01,2013-07-23 17:17:00,
2013-07-23 13:22:00,75.3,68.3,29.77,SE,135,0.0,0.0,79,0.00,,---,0.26,VWS V14.01,2013-07-23 17:22:00,
2013-07-23 13:27:00,75.9,68.6,29.77,SSE,158,0.0,0.0,78,0.00,,---,0.26,VWS V14.01,2013-07-23 17:27:00,
2013-07-23 13:32:00,76.1,68.4,29.77,West,270,0.0,0.0,77,0.00,,---,0.26,VWS V14.01,2013-07-23 17:32:00,
2013-07-23 13:37:00,75.9,67.4,29.77,NW,315,0.0,0.0,75,0.00,,---,0.26,VWS V14.01,2013-07-23 17:37:00,
2013-07-23 13:42:00,75.9,67.0,29.77,NW,315,0.0,0.0,74,0.00,,---,0.26,VWS V14.01,2013-07-23 17:42:00,
2013-07-23 13:47:00,76.1,67.2,29.77,NW,315,0.0,0.0,74,0.00,,---,0.26,VWS V14.01,2013-07-23 17:47:00,
2013-07-23 13:52:00,76.2,66.9,29.76,NW,315,0.0,0.0,73,0.00,,---,0.26,VWS V14.01,2013-07-23 17:52:00,
2013-07-23 13:57:00,76.6,67.3,29.76,NW,315,0.0,0.0,73,0.00,,---,0.26,VWS V14.01,2013-07-23 17:57:00,
2013-07-23 14:02:00,77.1,67.4,29.76,NW,315,0.0,0.0,72,0.00,,---,0.19,VWS V14.01,2013-07-23 18:02:00,
2013-07-23 14:07:00,77.5,66.9,29.75,WNW,292,0.0,0.0,70,0.00,,---,0.26,VWS V14.01,2013-07-23 18:07:00,
2013-07-23 14:12:00,77.9,67.3,29.75,NW,315,0.0,0.0,70,0.00,,---,0.26,VWS V14.01,2013-07-23 18:12:00,
2013-07-23 14:18:00,78.6,67.6,29.75,NNW,338,0.0,0.0,69,0.00,,---,0.26,VWS V14.01,2013-07-23 18:18:00,
2013-07-23 14:25:00,79.1,68.1,29.75,ENE,68,0.0,0.0,69,0.00,,---,0.26,VWS V14.01,2013-07-23 18:25:00,
2013-07-23 14:30:00,79.5,68.4,29.75,NE,45,0.0,0.0,69,0.00,,---,0.26,VWS V14.01,2013-07-23 18:30:00,
2013-07-23 14:35:00,79.7,68.2,29.75,NE,45,0.0,0.0,68,0.00,,---,0.26,VWS V14.01,2013-07-23 18:35:00,
2013-07-23 14:40:00,79.8,68.7,29.75,NE,45,0.0,0.0,69,0.00,,---,0.26,VWS V14.01,2013-07-23 18:40:00,
2013-07-23 14:45:00,80.2,68.7,29.75,NE,45,0.0,0.0,68,0.00,,---,0.26,VWS V14.01,2013-07-23 18:45:00,
2013-07-23 14:50:00,80.4,68.4,29.75,NW,315,0.0,0.0,67,0.00,,---,0.26,VWS V14.01,2013-07-23 18:50:00,
2013-07-23 14:55:00,80.7,68.7,29.74,SSE,158,0.0,0.0,67,0.00,,---,0.26,VWS V14.01,2013-07-23 18:55:00,
2013-07-23 15:00:00,80.9,68.5,29.74,SE,135,0.0,0.0,66,0.00,,---,0.19,VWS V14.01,2013-07-23 19:00:00,
2013-07-23 15:05:00,81.1,68.2,29.75,SW,225,0.0,0.0,65,0.00,,---,0.26,VWS V14.01,2013-07-23 19:05:00,
2013-07-23 15:10:00,81.1,67.8,29.74,WNW,292,0.0,0.0,64,0.00,,---,0.26,VWS V14.01,2013-07-23 19:10:00,
2013-07-23 15:16:00,81.3,67.1,29.74,NE,45,0.0,0.0,62,0.00,,---,0.26,VWS V14.01,2013-07-23 19:16:00,
2013-07-23 15:21:00,81.6,67.8,29.74,NNW,338,0.0,0.0,63,0.00,,---,0.19,VWS V14.01,2013-07-23 19:21:00,
2013-07-23 15:26:00,82.0,67.2,29.74,WNW,292,0.0,0.0,61,0.00,,---,0.19,VWS V14.01,2013-07-23 19:26:00,
2013-07-23 15:31:00,82.0,67.2,29.74,NW,315,0.0,0.0,61,0.00,,---,0.26,VWS V14.01,2013-07-23 19:31:00,
2013-07-23 16:41:00,82.2,66.0,29.73,WNW,292,0.0,0.0,58,0.00,,---,0.26,VWS V14.01,2013-07-23 20:41:00,
2013-07-23 16:46:00,82.0,65.8,29.72,WNW,292,0.0,0.0,58,0.00,,---,0.26,VWS V14.01,2013-07-23 20:46:00,
2013-07-23 16:51:00,82.0,65.8,29.72,NNW,338,0.0,0.0,58,0.00,,---,0.26,VWS V14.01,2013-07-23 20:51:00,
2013-07-23 16:56:00,82.0,65.8,29.73,WNW,292,0.0,0.0,58,0.00,,---,0.26,VWS V14.01,2013-07-23 20:56:00,
2013-07-23 17:01:00,81.6,65.9,29.73,NNW,338,0.0,0.0,59,0.00,,---,0.26,VWS V14.01,2013-07-23 21:01:00,
2013-07-23 17:06:00,81.6,65.9,29.73,NW,315,0.0,0.0,59,0.00,,---,0.26,VWS V14.01,2013-07-23 21:06:00,
2013-07-23 19:50:00,74.3,60.9,29.74,NW,315,0.0,0.0,63,0.00,,---,0.26,VWS V14.01,2013-07-23 23:50:00,
2013-07-23 19:55:00,73.9,61.0,29.75,NW,315,0.0,0.0,64,0.00,,---,0.26,VWS V14.01,2013-07-23 23:55:00,
2013-07-23 20:00:00,73.7,60.8,29.75,NNW,338,0.0,0.0,64,0.00,,---,0.26,VWS V14.01,2013-07-24 00:00:00,
2013-07-23 20:05:00,73.5,60.6,29.75,WNW,292,0.0,0.0,64,0.00,,---,0.26,VWS V14.01,2013-07-24 00:05:00,
2013-07-23 21:07:00,71.2,59.3,29.74,SSE,158,0.0,0.0,66,0.00,,---,0.26,VWS V14.01,2013-07-24 01:07:00,
2013-07-23 21:12:00,70.8,59.3,29.74,NNE,22,0.0,0.0,67,0.00,,---,0.26,VWS V14.01,2013-07-24 01:12:00,
2013-07-23 21:17:00,70.7,59.2,29.75,NNE,22,0.0,0.0,67,0.00,,---,0.26,VWS V14.01,2013-07-24 01:17:00,
2013-07-23 21:22:00,70.5,59.0,29.75,NNE,22,0.0,0.0,67,0.00,,---,0.26,VWS V14.01,2013-07-24 01:22:00,
2013-07-23 21:27:00,70.3,58.8,29.75,NNE,22,0.0,0.0,67,0.00,,---,0.26,VWS V14.01,2013-07-24 01:27:00,
2013-07-23 21:32:00,70.1,59.1,29.76,NNE,22,0.0,0.0,68,0.00,,---,0.26,VWS V14.01,2013-07-24 01:32:00,
2013-07-23 21:37:00,70.1,59.5,29.76,North,0,0.0,0.0,69,0.00,,---,0.26,VWS V14.01,2013-07-24 01:37:00,
2013-07-23 21:43:00,69.9,59.3,29.76,NW,315,0.0,0.0,69,0.00,,---,0.26,VWS V14.01,2013-07-24 01:43:00,
2013-07-23 21:48:00,69.8,59.6,29.76,NW,315,0.0,0.0,70,0.00,,---,0.26,VWS V14.01,2013-07-24 01:48:00,
2013-07-23 21:53:00,69.6,59.4,29.76,North,0,0.0,0.0,70,0.00,,---,0.26,VWS V14.01,2013-07-24 01:53:00,
2013-07-23 21:58:00,69.6,59.8,29.76,NNW,338,0.0,0.0,71,0.00,,---,0.19,VWS V14.01,2013-07-24 01:58:00,
2013-07-23 22:03:00,69.4,59.6,29.75,NNW,338,0.0,0.0,71,0.00,,---,0.26,VWS V14.01,2013-07-24 02:03:00,
2013-07-23 22:08:00,69.2,59.4,29.76,NNW,338,0.0,0.0,71,0.00,,---,0.26,VWS V14.01,2013-07-24 02:08:00,
2013-07-23 22:13:00,69.0,59.2,29.76,NNW,338,0.0,0.0,71,0.00,,---,0.26,VWS V14.01,2013-07-24 02:13:00,
2013-07-23 22:19:00,68.9,59.1,29.76,NNW,338,0.0,0.0,71,0.00,,---,0.26,VWS V14.01,2013-07-24 02:19:00,
2013-07-23 22:24:00,68.9,59.5,29.76,NNW,338,0.0,0.0,72,0.00,,---,0.26,VWS V14.01,2013-07-24 02:24:00,
2013-07-23 22:29:00,68.7,59.3,29.76,NNW,338,0.0,0.0,72,0.00,,---,0.26,VWS V14.01,2013-07-24 02:29:00,
2013-07-23 22:34:00,68.7,59.3,29.76,NNW,338,0.0,0.0,72,0.00,,---,0.26,VWS V14.01,2013-07-24 02:34:00,
2013-07-23 22:39:00,68.5,59.5,29.76,NNW,338,0.0,0.0,73,0.00,,---,0.26,VWS V14.01,2013-07-24 02:39:00,
2013-07-23 22:44:00,68.3,59.3,29.76,NNW,338,0.0,0.0,73,0.00,,---,0.26,VWS V14.01,2013-07-24 02:44:00,
2013-07-23 22:49:00,68.1,59.1,29.76,NNW,338,0.0,0.0,73,0.00,,---,0.26,VWS V14.01,2013-07-24 02:49:00,
2013-07-23 22:54:00,68.0,59.4,29.76,NNW,338,0.0,0.0,74,0.00,,---,0.26,VWS V14.01,2013-07-24 02:54:00,
2013-07-23 22:59:00,67.8,59.2,29.76,NNW,338,0.0,0.0,74,0.00,,---,0.19,VWS V14.01,2013-07-24 02:59:00,
2013-07-23 23:04:00,67.8,59.2,29.76,NNW,338,0.0,0.0,74,0.00,,---,0.26,VWS V14.01,2013-07-24 03:04:00,
2013-07-23 23:09:00,67.8,59.6,29.75,NNW,338,0.0,0.0,75,0.00,,---,0.26,VWS V14.01,2013-07-24 03:09:00,
2013-07-23 23:14:00,67.8,59.6,29.76,NNW,338,0.0,0.0,75,0.00,,---,0.26,VWS V14.01,2013-07-24 03:14:00,
2013-07-23 23:19:00,67.6,59.4,29.76,NNW,338,0.0,0.0,75,0.00,,---,0.26,VWS V14.01,2013-07-24 03:19:00,
2013-07-23 23:24:00,67.6,59.8,29.76,NNW,338,0.0,0.0,76,0.00,,---,0.26,VWS V14.01,2013-07-24 03:24:00,
2013-07-23 23:29:00,67.4,59.6,29.76,NNW,338,0.0,0.0,76,0.00,,---,0.26,VWS V14.01,2013-07-24 03:29:00,
2013-07-23 23:34:00,67.2,59.4,29.76,NW,315,0.0,0.0,76,0.00,,---,0.26,VWS V14.01,2013-07-24 03:34:00,
2013-07-23 23:39:00,67.2,59.4,29.75,NW,315,0.0,0.0,76,0.00,,---,0.26,VWS V14.01,2013-07-24 03:39:00,
2013-07-23 23:44:00,67.2,59.4,29.75,NNW,338,0.0,0.0,76,0.00,,---,0.26,VWS V14.01,2013-07-24 03:44:00,
2013-07-23 23:49:00,67.2,59.4,29.75,NNW,338,0.0,0.0,76,0.00,,---,0.26,VWS V14.01,2013-07-24 03:49:00,
2013-07-23 23:55:00,67.2,59.8,29.75,NNW,338,0.0,0.0,77,0.00,,---,0.26,VWS V14.01,2013-07-24 03:55:00,